(2020 AT1) |
Classification: Apollo [NEO] SPK-ID: 3976536 |
[ hide orbit diagram ]
For accurate long-term ephemerides, please instead use our Horizons system.This orbit viewer was implemented using two-body methods, and hence should not be used for determining accurate long-term trajectories (over several years or decades) or planetary encounter circumstances.
Orbital Elements at Epoch 2459000.5 (2020-May-31.0) TDB
Reference: JPL 5 (heliocentric ecliptic J2000)
Element | Value | Uncertainty (1-sigma) | Units |
e | .3031517963592406 | 0.00037717 | |
a | 1.344802341496041 | 0.00065221 | au |
q | .9371230959234034 | 5.2739e-05 | au |
i | 3.20579391081181 | 0.0045022 | deg |
node | 281.8671025353316 | 0.0014702 | deg |
peri | 224.0080191143112 | 0.0025758 | deg |
M | 70.28401511788371 | 0.049563 | deg |
tp | 2458889.290938815199 (2020-Feb-09.79093882) | 0.0024919 | TDB |
period | 569.6211572343886 1.56 | 0.41439 0.001135 | d yr |
n | .6319989969260686 | 0.00045977 | deg/d |
Q | 1.752481587068679 | 0.00084993 | au |
|
| | Orbit Determination Parameters
Additional Information
|
[ show covariance matrix ]
Physical Parameter Table
Parameter |
Symbol |
Value |
Units |
Sigma |
Reference |
Notes |
absolute magnitude |
H |
27.5 |
|
.25872 |
MPO545158 |
autocmod 2.8 |
|
[ show close-approach data ]
|